Content
SEND FEEDBACK

Daily
Averages
Monthly
Summary
United States of America

KEELINE, WYOMING


Home > North America > United States > Wyoming
Elevation: 5000 feet     Latitude: 42 45N     Longitude: 105 01W

WEATHER
 
SELECT A DAY
Number of Records: 165,000;   Date Range: 5/28/98 - 11/21/14
 
SHARE

PRINT THIS DATA

[ ← Previous Day ]
WEATHER ALMANAC - JANUARY 3, 2013
[ Next Day → ]
[ °C ]   °F
Weather ElementAverageHighLow
Temperature16.4 °F35.1 °F (1:53 pm)1.9 °F (4:53 am)
Dewpoint2.7 °F12 °F (3:53 pm)-5.1 °F (4:53 am)
Humidity56.8 %76 % (1:53 am)37 % (1:53 pm)
Barometer30.41 in30.48 in (1:53 am)30.32 in (1:53 pm)
Wind Speed6.8 mph15 mph (12:53 pm)
Weather ElementAverage
Visibility10 mi
Wind DirectionWSW (259.5 °)

Weather ElementTotal
Precipitation---
Heating Degree Days46.5 (Base 65)
Averaged from 22 records on January 3, 2013
WEATHER CONDITIONS BREAKOUT
WIND DIRECTION BREAKOUT
WEATHER BY HOUR - JANUARY 3, 2013
[ °C ]   °F
Local TimeTemperatureDewpointHumidityBarometerVisibilityWind DirectionWind SpeedGust SpeedPrecipitationEventsConditions
1:53 AM3.9 °F-2.0 °F76 %30.48 in10.0 miNNW (330°)8.1 mphClear
2:53 AM3.9 °F-2.9 °F73 %30.48 in10.0 miNW (310°)5.8 mphClear
3:53 AM3.9 °F-4.0 °F70 %30.47 in10.0 miNNW (340°)8.1 mphClear
4:53 AM1.9 °F-5.1 °F72 %30.47 in10.0 miNNW (330°)6.9 mphClear
5:53 AM3.0 °F-5.1 °F69 %30.48 in10.0 miNNW (330°)8.1 mphClear
6:53 AM5.0 °F-4.0 °F66 %30.47 in10.0 miNNW (330°)9.2 mphClear
7:53 AM10.0 °F-0.9 °F61 %30.46 in10.0 miNW (320°)6.9 mphClear
8:53 AM12.0 °F0.0 °F59 %30.47 in10.0 miWNW (300°)8.1 mphClear
9:53 AM19.9 °F3.0 °F48 %30.45 in10.0 miCalmClear
10:53 AM25.0 °F6.1 °F45 %30.41 in10.0 miWNW (300°)8.1 mphClear
11:53 AM30.0 °F10.0 °F43 %30.38 in10.0 miWNW (300°)11.5 mphClear
12:53 PM33.1 °F10.0 °F38 %30.35 in10.0 miNW (320°)15.0 mphClear
1:53 PM35.1 °F10.9 °F37 %30.32 in10.0 miNW (310°)11.5 mphClear
2:53 PM35.1 °F10.9 °F37 %30.32 in10.0 miNW (310°)11.5 mphClear
3:53 PM32.0 °F12.0 °F44 %30.35 in10.0 miNW (310°)8.1 mphClear
4:53 PM24.1 °F9.0 °F53 %30.38 in10.0 miNW (320°)9.2 mphClear
6:53 PM19.0 °F5.0 °F54 %30.41 in10.0 miNW (320°)5.8 mphClear
7:53 PM16.0 °F3.9 °F59 %30.40 in10.0 miNNW (330°)4.6 mphClear
8:53 PM14.0 °F1.9 °F59 %30.40 in10.0 miCalmClear
9:53 PM10.9 °F1.0 °F64 %30.37 in10.0 miCalmClear
10:53 PM12.9 °F1.0 °F59 %30.36 in10.0 miWNW (300°)3.5 mphClear
11:53 PM9.0 °F-0.9 °F64 %30.35 in10.0 miCalmClear
Hourly data recorded from KDGW, located miles away from Keeline, Wyoming







STORIES FROM OUR PARTNERS